CW2092 Weather Reports


Display with metric or nautical units.
time (UTC)temp
F
wind
direction
speed
MPH
gust
MPH
rain 1hr
in
rain 24hr
in
rain mn
in
humidity
%
barometer
mb
20240621131529 68 0 1.0 3.0 0.00 0.09 0.00 83 1026.2
20240621131022 68 96 0.0 2.0 0.00 0.09 0.00 83 1026.2
20240621130522 67 0 0.0 2.0 0.00 0.09 0.00 84 1026.2
20240621130029 67 101 1.0 3.0 0.00 0.09 0.00 83 1026.1
20240621125527 67 219 0.0 3.0 0.00 0.16 0.00 84 1026.2
20240621125024 67 0 0.0 2.0 0.00 0.16 0.00 84 1026.3
20240621124529 66 147 1.0 2.0 0.00 0.16 0.00 85 1026.3
20240621124024 66 166 0.0 4.0 0.00 0.16 0.00 85 1026.3
20240621123523 66 200 1.0 4.0 0.00 0.16 0.00 84 1026.4
20240621123028 66 139 1.0 4.0 0.00 0.16 0.00 84 1026.3
20240621122523 66 109 0.0 2.0 0.00 0.16 0.00 85 1026.3
20240621122024 66 0 0.0 2.0 0.00 0.16 0.00 85 1026.3
20240621121535 65 0 0.0 2.0 0.00 0.16 0.00 85 1026.4
20240621121023 65 0 0.0 2.0 0.00 0.16 0.00 85 1026.5
20240621120525 65 0 0.0 2.0 0.00 0.16 0.00 85 1026.6
20240621120031 65 127 0.0 2.0 0.00 0.16 0.00 86 1026.5
20240621115528 65 0 0.0 3.0 0.00 0.20 0.00 86 1026.5
20240621115024 64 0 0.0 3.0 0.00 0.20 0.00 86 1026.6
20240621114524 64 318 0.0 3.0 0.00 0.20 0.00 86 1026.5
20240621114023 64 0 0.0 2.0 0.00 0.20 0.00 87 1026.6
20240621113524 64 207 0.0 2.0 0.00 0.20 0.00 87 1026.6
20240621113027 64 0 0.0 2.0 0.00 0.20 0.00 87 1026.6
20240621112524 63 356 0.0 1.0 0.00 0.20 0.00 88 1026.6
20240621112024 63 0 0.0 2.0 0.00 0.20 0.00 88 1026.6
20240621111537 63 0 0.0 2.0 0.00 0.20 0.00 88 1026.6
20240621111022 63 0 0.0 1.0 0.00 0.20 0.00 88 1026.7
20240621110525 63 0 0.0 1.0 0.00 0.20 0.00 88 1026.5
20240621110028 63 321 0.0 1.0 0.00 0.20 0.00 88 1026.5
20240621105525 63 0 0.0 1.0 0.00 0.22 0.00 88 1026.5
20240621105023 63 0 0.0 0.0 0.00 0.22 0.00 89 1026.4
20240621104530 63 0 0.0 0.0 0.00 0.22 0.00 88 1026.4
20240621104022 63 0 0.0 1.0 0.00 0.22 0.00 89 1026.3
20240621103523 62 0 0.0 1.0 0.00 0.22 0.00 89 1026.4
20240621103026 62 0 0.0 1.0 0.00 0.22 0.00 89 1026.3
20240621102522 62 0 0.0 1.0 0.00 0.22 0.00 89 1026.3
20240621102022 62 0 0.0 1.0 0.00 0.22 0.00 89 1026.4
20240621101535 62 0 0.0 1.0 0.00 0.22 0.00 89 1026.5
20240621101023 62 0 0.0 1.0 0.00 0.22 0.00 89 1026.4
20240621100526 62 0 0.0 1.0 0.00 0.22 0.00 89 1026.3
20240621100040 62 0 0.0 1.0 0.00 0.22 0.00 89 1026.2
20240621095523 62 0 0.0 1.0 0.00 0.22 0.00 89 1026.2
20240621095023 62 0 0.0 1.0 0.00 0.22 0.00 89 1026.1
20240621094535 62 0 0.0 1.0 0.00 0.22 0.00 88 1026.0
20240621094024 62 0 0.0 1.0 0.00 0.22 0.00 88 1025.8
20240621093524 62 139 0.0 2.0 0.00 0.22 0.00 88 1025.9
20240621093032 62 0 0.0 2.0 0.00 0.22 0.00 88 1025.7
20240621092526 63 141 0.0 1.0 0.00 0.22 0.00 87 1025.9
20240621092023 63 0 0.0 1.0 0.00 0.22 0.00 86 1025.8
20240621091526 63 0 0.0 1.0 0.00 0.22 0.00 86 1025.9
20240621091024 63 0 0.0 1.0 0.00 0.22 0.00 86 1025.6
20240621090522 63 168 0.0 2.0 0.00 0.22 0.00 86 1025.8
20240621090027 63 0 0.0 2.0 0.00 0.22 0.00 86 1026.0
20240621085523 63 9 0.0 2.0 0.00 0.22 0.00 86 1026.2
20240621085024 63 340 0.0 2.0 0.00 0.22 0.00 87 1026.4
20240621084526 63 343 0.0 2.0 0.00 0.22 0.00 87 1026.5
20240621084023 63 348 0.0 2.0 0.00 0.22 0.00 88 1026.4
20240621083523 63 0 0.0 0.0 0.00 0.22 0.00 88 1026.2
20240621083028 62 0 0.0 0.0 0.00 0.22 0.00 88 1026.3
20240621082522 62 0 0.0 0.0 0.00 0.22 0.00 88 1026.2
20240621082024 62 0 0.0 0.0 0.00 0.22 0.00 88 1026.2
20240621081527 62 0 0.0 0.0 0.00 0.22 0.00 87 1026.2
20240621081023 62 0 0.0 0.0 0.00 0.22 0.00 87 1026.3
20240621080523 62 0 0.0 0.0 0.00 0.22 0.00 87 1026.2
20240621080039 62 0 0.0 0.0 0.00 0.22 0.00 87 1026.3
20240621075523 63 0 0.0 0.0 0.00 0.22 0.00 87 1026.3
20240621075024 63 0 0.0 0.0 0.00 0.22 0.00 86 1026.3
20240621074525 63 0 0.0 0.0 0.00 0.22 0.00 86 1026.5
20240621074024 63 0 0.0 0.0 0.00 0.22 0.00 85 1026.3
20240621073522 63 0 0.0 0.0 0.00 0.22 0.00 85 1026.4
20240621073028 64 0 0.0 0.0 0.00 0.22 0.00 84 1026.4
20240621072522 64 0 0.0 1.0 0.00 0.22 0.00 84 1026.3
20240621072023 64 0 0.0 2.0 0.00 0.22 0.00 84 1026.2
20240621071528 64 212 0.0 2.0 0.00 0.22 0.00 83 1026.3
20240621071024 64 0 0.0 0.0 0.00 0.22 0.00 83 1026.3
20240621070522 64 0 0.0 0.0 0.00 0.22 0.00 83 1026.3
20240621070028 64 0 0.0 0.0 0.00 0.22 0.00 84 1026.3
20240621065524 64 0 0.0 0.0 0.00 0.22 0.00 85 1026.3
20240621065024 64 0 0.0 0.0 0.00 0.22 0.00 85 1026.2
20240621064532 64 0 0.0 0.0 0.00 0.22 0.00 85 1026.4
20240621064024 63 0 0.0 0.0 0.00 0.22 0.00 85 1026.4
20240621063523 63 0 0.0 0.0 0.00 0.22 0.00 85 1026.6
20240621063031 63 0 0.0 0.0 0.00 0.22 0.00 85 1026.7
20240621062525 63 0 0.0 0.0 0.00 0.22 0.00 85 1026.6
20240621062023 63 0 0.0 0.0 0.00 0.22 0.00 85 1026.6
20240621061529 63 0 0.0 0.0 0.00 0.22 0.00 85 1026.6
20240621061028 63 0 0.0 0.0 0.00 0.22 0.00 85 1026.6
20240621060522 63 0 0.0 0.0 0.00 0.22 0.00 85 1026.8
20240621060027 63 0 0.0 1.0 0.00 0.22 0.00 85 1026.7
20240621055523 63 0 0.0 1.0 0.00 0.22 0.00 85 1026.6
20240621055023 63 0 0.0 1.0 0.00 0.22 0.00 85 1026.7
20240621054534 63 0 0.0 1.0 0.00 0.22 0.00 85 1026.9
20240621054023 63 0 0.0 1.0 0.00 0.22 0.00 85 1026.7
20240621053524 63 0 0.0 1.0 0.00 0.22 0.00 84 1026.8
20240621053022 63 0 0.0 1.0 0.00 0.22 0.00 84 1026.9
20240621052522 63 133 0.0 1.0 0.00 0.22 0.00 84 1027.0
20240621052025 63 0 0.0 2.0 0.00 0.22 0.00 84 1027.1
20240621051528 64 0 0.0 2.0 0.00 0.22 0.00 84 1027.1
20240621051022 63 0 0.0 2.0 0.00 0.22 0.00 84 1027.0
20240621050523 63 0 0.0 2.0 0.00 0.22 0.00 84 1027.2
20240621050028 63 352 0.0 1.0 0.00 0.22 0.00 85 1027.1
20240621045523 63 0 0.0 0.0 0.00 0.22 0.22 86 1027.1
20240621045022 63 0 0.0 2.0 0.00 0.22 0.22 85 1027.2
20240621044524 63 0 0.0 2.0 0.00 0.22 0.22 86 1027.3
20240621044025 63 0 0.0 2.0 0.00 0.22 0.22 86 1027.2
20240621043524 63 106 0.0 1.0 0.00 0.22 0.22 86 1027.3
20240621043027 63 0 0.0 1.0 0.00 0.22 0.22 86 1027.3
20240621042527 63 0 0.0 1.0 0.00 0.22 0.22 85 1027.3
20240621042023 64 202 0.0 1.0 0.00 0.22 0.22 85 1027.5
20240621041529 64 0 0.0 1.0 0.00 0.22 0.22 85 1027.3
20240621041026 64 0 0.0 2.0 0.00 0.22 0.22 85 1027.5
20240621040523 64 0 0.0 4.0 0.00 0.22 0.22 85 1027.3
20240621040031 64 62 0.0 4.0 0.00 0.22 0.22 85 1027.3
20240621035524 63 326 1.0 4.0 0.00 0.22 0.22 85 1027.4
20240621035022 63 0 0.0 2.0 0.00 0.22 0.22 86 1027.2
20240621034528 63 328 1.0 2.0 0.00 0.22 0.22 85 1027.4
20240621034024 63 0 0.0 0.0 0.00 0.22 0.22 85 1027.4
20240621033524 63 0 0.0 2.0 0.00 0.22 0.22 85 1027.6
20240621033026 63 0 0.0 2.0 0.00 0.22 0.22 85 1027.7
20240621032522 63 200 0.0 1.0 0.00 0.22 0.22 86 1027.6
20240621032025 63 0 0.0 1.0 0.00 0.22 0.22 86 1027.4
20240621031533 63 126 0.0 1.0 0.00 0.22 0.22 86 1027.4
20240621031023 63 0 0.0 0.0 0.00 0.22 0.22 86 1027.4
20240621030522 63 0 0.0 1.0 0.00 0.22 0.22 86 1027.6
20240621030031 63 0 0.0 1.0 0.00 0.22 0.22 86 1027.6
20240621025523 63 331 0.0 2.0 0.00 0.22 0.22 87 1027.5
20240621025022 64 0 0.0 2.0 0.00 0.22 0.22 87 1027.4
20240621024525 64 124 0.0 2.0 0.00 0.22 0.22 87 1027.3
20240621024023 64 4 0.0 2.0 0.00 0.22 0.22 86 1027.3
20240621023525 64 0 0.0 6.0 0.00 0.22 0.22 86 1027.5
20240621023032 64 195 0.0 6.0 0.00 0.22 0.22 86 1027.5
20240621022526 64 344 1.0 3.0 0.00 0.22 0.22 86 1027.5
20240621022024 64 299 1.0 2.0 0.00 0.22 0.22 85 1027.7
20240621021530 64 25 0.0 4.0 0.00 0.22 0.22 85 1027.7
20240621021026 64 135 1.0 4.0 0.00 0.22 0.22 85 1027.7
20240621020525 65 0 0.0 3.0 0.00 0.22 0.22 85 1027.6
20240621020024 65 0 0.0 2.0 0.00 0.22 0.22 85 1027.6
20240621015524 65 324 0.0 3.0 0.00 0.22 0.22 85 1027.6
20240621015026 65 295 0.0 5.0 0.00 0.22 0.22 84 1027.4
20240621014525 65 309 1.0 5.0 0.00 0.22 0.22 84 1027.4
20240621014026 65 329 0.0 5.0 0.00 0.22 0.22 84 1027.2
20240621013524 65 0 0.0 5.0 0.00 0.22 0.22 84 1027.3
20240621013028 65 3 0.0 3.0 0.00 0.22 0.22 85 1027.5
20240621012526 66 262 0.0 2.0 0.00 0.22 0.22 85 1027.6
20240621012026 66 0 0.0 2.0 0.00 0.22 0.22 85 1027.4
20240621011543 66 0 0.0 4.0 0.00 0.22 0.22 85 1027.3
20240621011023 66 348 1.0 4.0 0.00 0.22 0.22 85 1027.4
20240621010523 66 0 0.0 4.0 0.00 0.22 0.22 85 1027.2
20240621010030 66 231 0.0 3.0 0.00 0.22 0.22 85 1027.1
20240621005524 67 0 0.0 3.0 0.00 0.22 0.22 84 1027.2
20240621005024 67 0 0.0 3.0 0.00 0.22 0.22 84 1027.0
20240621004531 67 0 0.0 3.0 0.00 0.22 0.22 85 1027.0
20240621004025 67 0 0.0 3.0 0.00 0.22 0.22 84 1027.1
20240621003524 68 0 0.0 4.0 0.00 0.22 0.22 84 1027.1
20240621003033 68 0 0.0 4.0 0.00 0.22 0.22 84 1027.0
20240621002523 68 170 1.0 3.0 0.00 0.22 0.22 84 1027.0
20240621002047 69 230 0.0 4.0 0.00 0.22 0.22 83 1026.8
20240621001534 69 18 1.0 4.0 0.00 0.22 0.22 82 1026.8
20240621001027 70 171 1.0 4.0 0.00 0.22 0.22 82 1026.7
20240621000524 70 20 0.0 3.0 0.00 0.22 0.22 81 1026.5
20240621000028 71 223 1.0 4.0 0.00 0.22 0.22 80 1026.5
20240620235526 72 36 1.0 4.0 0.00 0.22 0.22 79 1026.5
20240620235026 73 360 1.0 4.0 0.00 0.22 0.22 78 1026.8
20240620234527 74 43 0.0 5.0 0.00 0.22 0.22 78 1026.8
20240620234026 74 0 1.0 5.0 0.00 0.22 0.22 78 1026.8
20240620233527 74 0 0.0 5.0 0.00 0.22 0.22 77 1026.8
20240620233027 74 74 1.0 6.0 0.00 0.22 0.22 78 1026.7
20240620232523 75 280 3.0 6.0 0.00 0.22 0.22 76 1026.7
20240620232026 75 0 1.0 6.0 0.00 0.22 0.22 76 1026.8
20240620231531 75 61 0.0 6.0 0.00 0.22 0.22 77 1026.9
20240620231026 75 308 2.0 6.0 0.00 0.22 0.22 77 1026.8
20240620230525 75 146 1.0 6.0 0.00 0.22 0.22 78 1026.9
20240620230029 75 200 2.0 6.0 0.00 0.22 0.22 78 1026.8
20240620225527 75 326 0.0 5.0 0.00 0.22 0.22 79 1026.8
20240620225026 76 359 1.0 5.0 0.00 0.22 0.22 78 1026.8
20240620224543 76 344 0.0 4.0 0.00 0.22 0.22 78 1026.9
20240620224030 76 331 1.0 4.0 0.00 0.22 0.22 78 1026.9
20240620223527 77 45 0.0 4.0 0.00 0.22 0.22 78 1026.8
20240620223034 77 304 1.0 4.0 0.00 0.22 0.22 76 1026.8
20240620222526 77 150 1.0 4.0 0.00 0.22 0.22 76 1026.8
20240620222026 78 255 1.0 4.0 0.00 0.22 0.22 77 1026.9
20240620221532 78 302 1.0 4.0 0.00 0.22 0.22 76 1026.9
20240620221025 78 200 1.0 4.0 0.00 0.22 0.22 75 1027.0
20240620220525 79 301 0.0 4.0 0.00 0.22 0.22 75 1027.0
20240620220028 78 334 1.0 5.0 0.00 0.22 0.22 75 1027.0
20240620215526 78 120 1.0 5.0 0.00 0.22 0.22 76 1027.0
20240620215029 78 316 1.0 5.0 0.00 0.22 0.22 75 1027.1
20240620214527 78 48 1.0 4.0 0.00 0.22 0.22 75 1027.3
20240620214023 78 27 1.0 3.0 0.00 0.22 0.22 76 1027.5
20240620213526 78 162 0.0 4.0 0.00 0.22 0.22 75 1027.5
20240620213028 78 0 0.0 4.0 0.00 0.22 0.22 76 1027.4
20240620212523 78 326 1.0 4.0 0.00 0.22 0.22 75 1027.5
20240620212022 78 353 0.0 4.0 0.00 0.22 0.22 75 1027.5
20240620211529 79 316 0.0 4.0 0.00 0.22 0.22 74 1027.4
20240620211022 78 0 1.0 3.0 0.00 0.22 0.22 75 1027.4
20240620210522 77 162 1.0 4.0 0.00 0.22 0.22 77 1027.4
20240620210027 77 255 1.0 6.0 0.00 0.22 0.22 78 1027.4
20240620205522 76 0 2.0 7.0 0.00 0.22 0.22 78 1027.1
20240620205024 76 32 1.0 7.0 0.00 0.22 0.22 78 1027.2
20240620204527 76 298 1.0 7.0 0.00 0.22 0.22 78 1027.3
20240620204023 76 278 2.0 5.0 0.00 0.22 0.22 78 1027.4
20240620203522 76 142 1.0 6.0 0.00 0.22 0.22 78 1027.2
20240620203027 76 53 1.0 6.0 0.00 0.22 0.22 78 1027.4
20240620202523 75 53 1.0 6.0 0.00 0.22 0.22 79 1027.6
20240620202032 75 332 1.0 5.0 0.00 0.22 0.22 80 1027.8
20240620201527 75 317 1.0 4.0 0.00 0.22 0.22 80 1027.9
20240620201023 75 302 2.0 5.0 0.00 0.22 0.22 79 1027.9
20240620200527 74 231 1.0 6.0 0.00 0.22 0.22 82 1028.1
20240620200026 74 309 1.0 6.0 0.00 0.22 0.22 81 1028.2
20240620195526 74 323 2.0 6.0 0.00 0.22 0.22 81 1028.2
20240620195022 74 339 3.0 6.0 0.00 0.22 0.22 80 1028.3
20240620194525 75 27 1.0 4.0 0.00 0.22 0.22 80 1028.4
20240620194029 75 348 2.0 5.0 0.00 0.22 0.22 79 1028.2
20240620193524 75 29 1.0 5.0 0.00 0.22 0.22 79 1028.3
20240620193046 76 25 2.0 5.0 0.00 0.22 0.22 78 1028.3
20240620192524 76 27 0.0 5.0 0.00 0.22 0.22 80 1028.3
20240620192023 76 355 1.0 5.0 0.00 0.22 0.22 77 1028.3
20240620191534 76 0 1.0 5.0 0.00 0.22 0.22 79 1028.2
20240620191024 76 352 2.0 5.0 0.00 0.22 0.22 77 1028.3
20240620190523 76 319 1.0 4.0 0.00 0.22 0.22 78 1028.3
20240620190028 77 0 1.0 4.0 0.00 0.22 0.22 76 1028.3
20240620185522 77 36 1.0 4.0 0.00 0.22 0.22 77 1028.2
20240620185030 77 139 1.0 6.0 0.00 0.22 0.22 79 1028.3
20240620184531 76 278 2.0 6.0 0.00 0.22 0.22 79 1028.3
20240620184022 75 317 1.0 5.0 0.00 0.22 0.22 81 1028.2
20240620183523 75 237 0.0 6.0 0.00 0.22 0.22 81 1028.2
20240620183027 74 12 1.0 6.0 0.00 0.22 0.22 81 1028.2
20240620182523 75 9 2.0 6.0 0.00 0.22 0.22 78 1028.2
20240620182024 75 330 1.0 4.0 0.00 0.22 0.22 81 1028.2
20240620181528 75 198 2.0 4.0 0.00 0.22 0.22 81 1028.2
20240620181023 73 12 1.0 6.0 0.00 0.22 0.22 84 1028.0
20240620180523 72 278 2.0 6.0 0.00 0.22 0.22 84 1028.1
20240620180027 72 276 2.0 6.0 0.00 0.22 0.22 84 1028.0
20240620175523 72 28 1.0 5.0 0.00 0.22 0.22 84 1028.1
20240620175025 71 0 1.0 5.0 0.00 0.22 0.22 86 1028.3
20240620174529 71 358 2.0 5.0 0.00 0.22 0.22 85 1028.3
20240620174025 71 158 1.0 5.0 0.00 0.22 0.22 86 1028.3
20240620173525 71 22 1.0 5.0 0.00 0.22 0.22 86 1028.4
20240620173028 70 220 1.0 5.0 0.00 0.22 0.22 87 1028.4
20240620172528 70 343 1.0 5.0 0.00 0.22 0.22 86 1028.6
20240620172022 70 0 0.0 2.0 0.00 0.22 0.22 88 1028.7
20240620171530 69 0 1.0 6.0 0.00 0.22 0.22 87 1028.9
20240620171025 69 297 1.0 6.0 0.00 0.22 0.22 88 1028.8
20240620170524 69 348 1.0 5.0 0.00 0.22 0.22 87 1029.0
20240620170031 68 284 2.0 5.0 0.00 0.22 0.22 88 1029.0
20240620165524 69 307 0.0 3.0 0.00 0.22 0.22 89 1029.0
20240620165022 69 11 0.0 3.0 0.00 0.22 0.22 88 1029.1
20240620164535 68 333 0.0 3.0 0.00 0.22 0.22 89 1029.1
20240620164023 68 359 0.0 3.0 0.00 0.22 0.22 89 1029.1
20240620163523 68 228 0.0 3.0 0.00 0.22 0.22 90 1029.1
20240620163028 68 354 0.0 2.0 0.00 0.22 0.22 90 1029.1
20240620162523 67 152 0.0 2.0 0.00 0.22 0.22 91 1029.2
20240620162022 67 17 0.0 3.0 0.00 0.22 0.22 92 1029.3
20240620161537 66 252 1.0 3.0 0.00 0.22 0.22 92 1029.4
20240620161025 66 0 0.0 4.0 0.00 0.22 0.22 93 1029.4
20240620160523 65 142 0.0 4.0 0.00 0.22 0.22 93 1029.3
20240620160027 65 158 0.0 3.0 0.00 0.22 0.22 93 1029.2
20240620155522 65 307 1.0 5.0 0.00 0.22 0.22 93 1029.3
20240620155023 65 314 1.0 5.0 0.00 0.22 0.22 93 1029.3
20240620154538 65 255 0.0 2.0 0.00 0.22 0.22 94 1029.4
20240620154023 65 0 0.0 3.0 0.00 0.22 0.22 94 1029.5
20240620153523 64 168 0.0 3.0 0.00 0.22 0.22 95 1029.6
20240620153028 64 4 0.0 4.0 0.00 0.22 0.22 95 1029.7
20240620152523 64 350 1.0 4.0 0.00 0.22 0.22 94 1029.7
20240620152022 64 30 0.0 4.0 0.00 0.22 0.22 94 1029.8
20240620151539 64 359 1.0 4.0 0.00 0.22 0.22 94 1029.7
20240620151025 64 304 0.0 3.0 0.00 0.22 0.22 95 1029.6
20240620150523 64 294 0.0 5.0 0.00 0.22 0.22 95 1029.5
20240620150029 63 188 0.0 5.0 0.00 0.22 0.22 95 1029.4
20240620145523 63 314 1.0 6.0 0.00 0.22 0.22 95 1029.3
20240620145025 63 335 2.0 6.0 0.01 0.22 0.22 94 1029.4
20240620144528 63 335 1.0 4.0 0.01 0.22 0.22 95 1029.3
20240620144023 63 336 0.0 4.0 0.02 0.22 0.22 95 1029.4
20240620143522 63 288 1.0 4.0 0.03 0.22 0.22 95 1029.4
20240620143027 63 0 0.0 4.0 0.04 0.22 0.22 95 1029.3
20240620142523 63 357 0.0 3.0 0.04 0.22 0.22 96 1029.2
20240620142026 62 0 1.0 3.0 0.05 0.22 0.22 95 1029.3
20240620141528 62 15 1.0 2.0 0.06 0.22 0.22 95 1029.4
20240620141022 62 309 0.0 5.0 0.07 0.22 0.22 96 1029.5
20240620140523 62 329 0.0 5.0 0.08 0.22 0.22 96 1029.4
20240620140029 62 41 1.0 5.0 0.08 0.22 0.22 95 1029.5
20240620135523 62 352 0.0 3.0 0.09 0.22 0.22 95 1029.6
20240620135023 62 319 0.0 3.0 0.09 0.21 0.21 95 1029.6
20240620134524 62 10 0.0 4.0 0.10 0.21 0.21 95 1029.5
20240620134023 62 356 0.0 5.0 0.09 0.20 0.20 95 1029.5
20240620133524 62 288 1.0 5.0 0.09 0.19 0.19 95 1029.3
20240620133036 62 306 1.0 5.0 0.09 0.18 0.18 95 1029.3
20240620132522 62 301 2.0 7.0 0.10 0.18 0.18 95 1029.4
20240620132024 62 322 1.0 7.0 0.09 0.17 0.17 95 1029.4